User: anonymous   Login
Location: De Greiden
(52.9496°N, 5.9137°E)
Time: 09:29:55
(UTC+00:00)
Language:

ATLAS 2AS CENTAUR R/B - Orbit

View from above orbital plane
View from above orbital plane
View from above satellite
View from above satellite

Ground track
Ground track

The orbit data is extracted from the following two-line orbital elements,

1 28096U 03054B   21100.10136720 0.00000000  00000-0  00000-0 0    04
2 28096  63.6735 137.7218 0212731 218.8228 141.1772 13.40866556    00
Epoch (UTC): 10 April 2021 02:25:58
Eccentricity: 0.0212731
inclination: 63.6735°
perigee height: 947 km
apogee height: 1265 km
right ascension of ascending node: 137.7218°
argument of perigee: 218.8228°
revolutions per day: 13.40866556
mean anomaly at epoch: 141.1772°
orbit number at epoch: 0

The dashed part of the orbit path shows where the satellite is in the earth's shadow,  

DLR